Location: Sternwarte_Laufen
(47.9344°N, 12.9346°E)
Time: 21:14:24
(UTC+01:00)

ISS - Pass Details

Date: 13 January 2018
Orbit: 402 x 407 km, 51.6° (Epoch: 17 January)

Event Time Altitude Azimuth Distance (km) Brightness Sun altitude
Exits shadow 05:34:05 43° 130° (SE) 578 -2.8 -22.8°
Drops below altitude 10° 05:36:26 10° 120° (ESE) 1,463 -0.1 -22.4°
Sets 05:38:31 0° 119° (ESE) 2,321 1.2 -22.1°
